Wind_Speed
41 40 38 40 40 43 44 46 55 67 78 94 106 114 131 143 143 134 130 128 121 116 113 113 108 104 106 103 100 99 95 92 88 87 83 80 78 74 71 70 72 72 71 70
40 34 35 32 34 39 43 43 46 56 67 77 92 107 127 146 148 144 136 127 127 118 113 112 111 108 101 103 105 103 98 94 90 88 84 83 79 76 73 69 70 69 69 70
39 33 32 32 31 32 39 41 42 48 57 66 80 97 120 138 147 144 138 129 126 120 116 112 110 109 103 104 106 106 101 99 97 90 86 84 82 79 77 77 75 74 73 74
36 36 32 34 31 30 30 38 39 45 52 61 71 82 106 126 146 149 143 130 126 124 117 113 109 107 103 105 106 108 102 102 99 95 92 88 85 84 83 81 78 77 76 76
45 33 35 33 33 30 28 32 38 42 49 51 62 75 89 113 135 149 146 138 131 125 121 115 112 107 107 105 104 101 102 102 99 96 94 93 91 89 87 84 80 80 81 79
40 38 36 35 35 33 29 32 35 40 43 50 67 66 87 101 123 142 150 142 134 126 122 119 118 112 107 103 97 96 98 102 101 95 93 95 95 93 90 86 87 87 87 84
40 40 37 35 35 35 33 33 34 35 43 44 60 57 76 87 108 127 149 145 136 130 122 121 119 112 105 95 91 89 93 99 100 100 99 95 92 91 90 90 91 90 88 87
39 40 39 38 36 35 34 36 34 33 34 43 53 47 65 76 94 114 133 148 138 130 124 122 116 109 93 84 90 95 93 92 98 100 98 94 90 87 86 87 89 89 88 88
41 39 43 40 34 35 33 32 30 28 31 38 48 54 67 66 81 102 121 137 145 134 132 125 110 86 85 91 99 100 98 99 91 92 96 93 93 90 87 85 81 85 86 85
41 35 44 39 33 32 29 28 24 24 29 35 48 45 61 64 78 94 114 126 137 138 135 123 85 71 55 74 90 91 99 105 92 90 86 87 86 87 87 84 83 81 80 79
41 39 38 32 28 26 23 21 19 20 27 35 42 44 63 57 75 89 112 120 128 131 131 119 96 90 75 84 94 85 95 103 92 85 84 80 78 77 77 76 74 74 74 72
41 34 30 27 23 20 18 15 15 18 22 32 29 38 52 54 68 83 107 112 119 124 122 121 102 80 57 101 118 94 107 111 94 81 77 79 76 71 68 67 65 60 59 62
36 29 25 22 15 12 12 13 10 15 20 21 23 36 44 48 63 78 86 98 110 115 118 105 98 75 86 84 80 88 92 97 84 73 74 78 73 66 60 55 50 49 50 51
32 25 19 11 9 9 6 6 7 10 11 16 23 30 35 45 57 67 85 93 103 116 115 110 111 96 85 90 87 79 75 74 76 74 74 74 65 57 55 53 51 52 50 52
26 17 10 10 8 7 9 6 3 5 9 15 18 28 36 42 56 69 86 94 102 108 106 110 93 104 107 102 100 98 83 81 76 79 75 71 62 56 55 52 50 48 51 52
19 10 8 5 9 13 1 6 1 4 8 9 20 28 35 47 54 69 84 86 89 97 98 100 94 80 102 114 115 100 87 85 79 78 75 62 56 50 49 49 50 51 53 54
13 4 4 4 3 4 5 7 4 6 5 15 24 28 37 49 55 65 69 77 86 88 95 98 107 101 91 94 103 102 91 84 82 72 64 60 54 49 50 50 52 53 54 57
3 5 9 8 5 9 10 12 10 3 9 17 23 31 37 42 54 50 53 79 79 86 90 95 103 109 112 108 107 97 85 77 64 59 56 54 51 52 52 51 52 54 57 58
11 13 12 9 8 8 10 13 13 9 14 19 27 30 29 34 51 61 76 89 82 89 90 92 98 97 97 91 90 78 67 61 59 56 52 52 52 52 51 53 56 57 55 56
15 23 20 21 20 16 15 17 20 21 25 31 31 42 35 47 65 70 76 80 82 88 95 95 91 84 82 79 77 76 65 57 55 53 54 52 52 52 54 55 55 54 58 62
22 25 27 20 14 20 19 26 36 43 48 52 52 35 46 53 70 69 71 74 81 86 88 92 90 81 74 66 64 62 59 57 56 54 54 53 51 52 53 53 54 60 61 63
26 32 27 21 23 30 37 40 44 58 66 52 39 43 38 56 70 73 69 71 74 80 82 84 81 72 70 63 59 56 55 54 53 53 51 51 51 52 53 57 60 61 63 65
26 37 29 31 27 31 37 38 39 48 46 39 28 43 38 48 67 72 75 69 69 72 76 72 68 60 61 57 55 53 49 48 49 48 49 49 51 55 57 57 59 60 62 66
29 35 30 31 29 31 35 37 39 35 34 42 42 42 42 55 63 73 75 72 71 71 67 57 54 54 54 52 49 45 44 45 46 49 51 52 52 54 55 57 60 64 64 68
32 33 35 35 33 33 33 37 32 27 27 33 39 45 48 55 62 68 71 70 69 65 59 55 51 52 50 47 44 42 42 42 44 47 48 51 53 54 57 61 64 64 65 68
41 42 40 40 35 31 29 34 33 29 34 35 40 47 49 63 70 69 68 65 64 63 59 54 51 49 47 43 41 42 43 44 46 50 50 53 55 58 60 63 63 66 69 70
Wind_Direction
317 305 294 284 275 268 261 246 238 236 233 228 226 220 215 215 220 218 219 221 223 223 224 228 229 225 225 227 227 228 231 235 238 239 240 242 245 247 250 252 254 257 260 264
318 306 299 289 278 267 262 255 242 236 233 230 225 219 215 214 217 218 216 219 222 221 224 226 229 230 225 227 230 231 230 232 236 238 240 243 246 248 250 253 255 258 261 263
321 312 301 295 287 270 263 257 250 238 233 230 222 218 217 213 215 217 219 217 221 221 222 224 227 229 227 227 229 232 231 231 233 238 240 243 246 249 251 252 254 258 261 264
327 319 313 302 291 280 267 260 253 242 233 230 224 218 218 214 213 215 216 216 220 222 222 224 226 229 230 228 229 232 234 235 236 238 241 243 246 249 251 252 255 258 263 266
324 320 316 311 304 288 270 262 251 246 235 229 227 218 218 216 214 214 215 215 217 220 221 222 226 227 230 232 229 231 234 237 238 239 241 243 245 249 252 255 259 261 264 267
320 318 315 311 306 296 282 272 254 246 239 225 228 213 218 213 213 212 213 213 216 217 220 221 223 226 229 232 234 234 234 236 237 239 240 243 246 248 252 256 258 261 264 267
317 315 315 309 303 298 290 281 265 247 238 228 230 218 222 214 212 211 211 212 214 215 217 219 221 225 229 233 235 238 235 235 237 238 243 245 247 249 252 254 257 261 265 268
321 322 320 312 304 296 290 281 273 251 240 230 230 219 221 214 213 210 212 211 213 213 214 221 224 226 233 238 240 242 242 241 240 241 243 245 248 250 251 254 257 260 264 267
321 325 316 312 305 294 287 282 277 261 244 231 225 217 221 212 211 209 208 210 212 211 215 218 221 226 232 236 235 238 244 246 243 245 245 246 247 249 252 255 258 263 266 269
324 325 313 316 303 294 289 286 275 257 240 228 229 214 220 208 207 204 208 207 212 215 214 214 212 213 207 221 226 230 239 245 245 245 247 247 248 249 252 256 259 262 265 269
324 323 321 308 305 300 290 284 270 250 234 229 225 209 219 210 205 203 203 205 210 212 212 210 206 200 198 237 240 234 239 243 242 243 247 249 250 251 254 257 260 262 265 268
324 330 315 317 319 309 299 281 262 250 231 231 224 217 216 207 207 204 202 205 208 207 208 212 210 199 208 234 236 230 240 242 240 242 245 250 252 254 257 260 263 267 268 269
329 329 326 322 323 307 302 272 246 235 230 224 213 214 212 203 206 204 210 203 203 204 205 206 205 198 219 224 223 228 231 231 235 239 245 250 253 257 258 260 262 263 264 265
334 334 331 321 336 312 296 250 253 243 231 215 201 205 207 202 200 200 202 204 201 200 203 202 203 191 213 218 218 223 229 231 237 241 245 248 251 253 257 260 262 262 261 266
331 331 327 358 342 347 2 5 310 256 221 207 194 190 196 193 194 194 196 201 199 197 195 197 202 212 218 225 226 235 235 237 237 240 244 249 250 253 257 260 259 258 263 267
334 329 9 17 73 52 344 346 304 233 218 206 186 190 183 186 190 193 192 198 194 192 190 192 192 200 211 216 224 230 232 236 234 240 242 246 249 250 252 254 254 259 265 265
327 17 61 76 101 86 315 321 303 246 172 171 188 180 183 184 188 188 186 193 187 187 189 193 198 207 209 214 221 226 226 231 237 237 240 245 246 249 250 251 254 260 263 266
5 107 112 112 91 41 6 342 332 315 142 163 175 176 181 178 173 156 182 193 182 184 187 193 198 205 212 215 218 223 226 230 230 234 237 239 242 241 247 252 255 259 263 266
109 115 114 72 71 29 351 352 19 105 144 146 156 154 154 161 161 168 184 190 184 183 188 193 200 205 209 213 217 218 220 223 229 232 234 237 240 242 244 250 255 257 262 267
122 104 94 81 74 57 32 52 80 100 120 124 121 132 128 170 168 172 182 187 183 186 189 195 198 201 205 209 214 219 221 221 224 229 234 235 237 244 249 251 255 260 266 270
139 124 110 100 90 73 80 101 109 116 123 125 121 143 162 165 169 173 181 183 185 189 194 198 201 203 204 208 210 214 215 219 223 229 233 238 243 245 250 256 260 262 266 270
152 128 124 121 106 91 104 115 126 129 130 128 138 153 164 169 170 171 178 182 187 191 195 199 199 202 206 208 211 213 215 220 226 230 236 240 243 248 255 258 261 264 267 272
164 135 136 126 116 113 111 128 139 137 138 128 163 158 173 175 172 172 176 184 191 193 194 195 198 199 203 205 209 214 219 224 228 232 238 243 248 253 256 261 265 268 272 272
156 142 145 135 137 132 123 131 140 145 149 154 166 161 169 175 176 174 175 182 188 190 191 191 194 198 200 202 205 211 218 225 232 236 240 245 250 254 260 264 266 269 273 276
149 147 146 137 130 125 127 130 129 142 155 162 170 164 174 179 179 177 177 183 187 189 191 192 193 196 201 205 210 216 222 228 235 239 244 249 253 258 261 263 267 272 277 282
161 149 143 139 138 134 139 137 131 132 155 158 165 170 172 178 178 179 182 186 189 192 194 197 199 201 205 212 220 226 230 236 240 242 246 250 252 256 262 268 272 276 281 284
Height
10490 10480 10474 10469 10467 10465 10466 10470 10474 10478 10484 10495 10516 10551 10572 10565 10583 10616 10635 10652 10680 10700 10717 10729 10745 10764 10777 10796 10799 10804 10818 10828 10837 10842 10850 10858 10865 10873 10879 10885 10887 10889 10890 10889
10479 10471 10463 10458 10454 10453 10451 10453 10455 10459 10464 10477 10492 10513 10525 10535 10558 10582 10607 10636 10656 10685 10701 10714 10728 10742 10768 10783 10785 10788 10806 10816 10824 10829 10842 10848 10855 10862 10868 10874 10875 10878 10878 10878
10469 10461 10454 10448 10444 10442 10439 10439 10442 10444 10448 10457 10464 10486 10490 10524 10542 10571 10599 10623 10642 10668 10684 10699 10714 10727 10753 10761 10773 10774 10793 10803 10810 10821 10831 10838 10846 10852 10856 10857 10863 10865 10866 10868
10461 10449 10445 10438 10434 10431 10429 10427 10428 10429 10432 10436 10450 10471 10478 10499 10523 10541 10574 10608 10628 10651 10675 10689 10703 10715 10737 10747 10760 10764 10785 10791 10803 10813 10821 10829 10837 10838 10842 10846 10853 10855 10858 10858
10446 10443 10435 10430 10423 10419 10418 10415 10415 10415 10420 10431 10437 10446 10464 10476 10503 10523 10559 10581 10605 10630 10656 10677 10689 10706 10715 10731 10745 10766 10776 10783 10795 10802 10810 10818 10822 10827 10832 10838 10845 10843 10844 10847
10441 10434 10428 10421 10414 10409 10406 10403 10403 10404 10408 10414 10401 10432 10428 10452 10473 10499 10529 10561 10587 10615 10640 10659 10670 10687 10705 10724 10744 10757 10767 10774 10781 10794 10791 10805 10811 10818 10826 10831 10829 10831 10834 10838
10434 10425 10419 10412 10405 10399 10396 10392 10390 10393 10393 10402 10402 10423 10422 10445 10458 10488 10506 10539 10566 10591 10620 10638 10660 10691 10709 10731 10744 10750 10757 10762 10771 10776 10783 10793 10803 10810 10815 10816 10817 10820 10824 10827
10427 10414 10409 10402 10396 10389 10385 10380 10379 10380 10388 10391 10395 10418 10412 10430 10448 10472 10500 10524 10547 10577 10608 10638 10668 10692 10725 10738 10743 10748 10751 10756 10762 10768 10778 10787 10794 10800 10800 10801 10806 10811 10814 10816
10419 10408 10398 10391 10386 10376 10374 10371 10370 10372 10376 10381 10384 10389 10391 10420 10437 10457 10480 10505 10523 10563 10601 10627 10672 10700 10715 10719 10719 10726 10739 10747 10753 10765 10772 10781 10782 10786 10788 10793 10797 10802 10804 10805
10408 10404 10387 10380 10373 10368 10364 10361 10362 10362 10366 10368 10365 10384 10385 10403 10417 10441 10461 10487 10517 10564 10588 10632 10673 10695 10704 10698 10695 10699 10711 10734 10746 10755 10763 10768 10773 10774 10779 10785 10790 10793 10795 10793
10397 10390 10379 10371 10366 10360 10356 10353 10352 10352 10354 10355 10358 10371 10367 10400 10407 10427 10443 10478 10512 10551 10590 10639 10656 10689 10721 10709 10683 10684 10706 10725 10735 10737 10749 10757 10761 10765 10771 10776 10780 10783 10784 10783
10388 10381 10372 10366 10360 10354 10350 10347 10345 10344 10346 10346 10358 10368 10374 10390 10404 10421 10429 10468 10504 10545 10591 10616 10659 10708 10738 10655 10656 10673 10700 10718 10716 10728 10738 10746 10752 10756 10762 10767 10769 10770 10770 10771
10383 10374 10368 10362 10355 10349 10346 10344 10340 10338 10338 10345 10354 10360 10370 10388 10399 10415 10445 10469 10503 10545 10581 10618 10658 10702 10691 10663 10669 10683 10696 10697 10707 10719 10729 10738 10743 10748 10753 10756 10758 10759 10759 10759
10376 10371 10366 10358 10353 10347 10344 10341 10339 10338 10340 10345 10350 10357 10370 10383 10397 10419 10444 10474 10506 10522 10564 10619 10643 10638 10639 10665 10672 10678 10682 10686 10701 10714 10722 10730 10734 10738 10743 10746 10748 10749 10749 10749
10374 10370 10364 10359 10353 10346 10343 10343 10341 10342 10343 10343 10350 10356 10365 10380 10395 10412 10437 10470 10482 10529 10563 10605 10632 10640 10647 10654 10661 10662 10669 10679 10694 10707 10716 10721 10727 10731 10735 10737 10739 10739 10738 10739
10373 10366 10363 10360 10355 10353 10348 10345 10344 10344 10345 10349 10353 10356 10366 10377 10394 10411 10427 10456 10498 10534 10564 10594 10613 10622 10632 10648 10651 10657 10664 10677 10691 10702 10709 10713 10719 10722 10725 10727 10728 10729 10729 10727
10372 10367 10365 10363 10358 10354 10352 10349 10346 10345 10347 10351 10354 10361 10371 10378 10393 10413 10451 10486 10505 10534 10563 10587 10604 10613 10621 10631 10643 10654 10666 10677 10687 10695 10701 10707 10712 10714 10715 10717 10719 10719 10718 10717
10372 10369 10368 10366 10362 10360 10358 10353 10350 10350 10352 10356 10361 10366 10378 10393 10418 10444 10472 10493 10510 10533 10562 10580 10597 10609 10619 10627 10642 10655 10664 10673 10680 10687 10694 10700 10703 10704 10706 10708 10709 10708 10707 10707
10374 10373 10372 10370 10369 10367 10363 10359 10355 10353 10357 10362 10367 10377 10394 10416 10438 10451 10468 10489 10510 10531 10554 10567 10580 10592 10605 10621 10634 10645 10655 10666 10674 10681 10686 10690 10693 10694 10696 10698 10698 10697 10698 10697
10378 10377 10377 10376 10375 10372 10367 10364 10363 10365 10367 10372 10382 10402 10428 10430 10436 10453 10470 10491 10510 10527 10542 10556 10570 10585 10601 10615 10628 10640 10651 10660 10668 10674 10679 10680 10681 10685 10687 10688 10688 10689 10687 10686
10383 10381 10381 10382 10381 10380 10374 10372 10372 10376 10378 10388 10399 10418 10431 10434 10446 10461 10477 10494 10510 10526 10541 10555 10571 10587 10599 10612 10625 10635 10644 10653 10661 10666 10669 10672 10674 10677 10677 10678 10678 10676 10676 10674
10385 10385 10387 10388 10388 10389 10383 10386 10387 10391 10396 10405 10416 10426 10433 10438 10451 10464 10484 10499 10513 10527 10542 10559 10573 10587 10600 10611 10620 10630 10639 10647 10654 10657 10662 10664 10666 10667 10668 10667 10666 10666 10665 10663
10388 10390 10392 10393 10396 10399 10398 10400 10402 10404 10410 10418 10429 10434 10442 10453 10462 10473 10490 10506 10519 10536 10551 10564 10578 10589 10600 10609 10618 10626 10633 10640 10644 10650 10653 10655 10657 10658 10658 10658 10657 10655 10653 10650
10394 10394 10397 10397 10402 10404 10407 10409 10414 10418 10422 10430 10435 10445 10455 10464 10474 10483 10497 10515 10530 10543 10556 10567 10578 10588 10597 10605 10613 10621 10628 10634 10638 10641 10643 10646 10648 10648 10648 10646 10645 10643 10640 10637
10399 10401 10402 10406 10410 10410 10416 10421 10424 10427 10433 10438 10443 10451 10462 10472 10485 10496 10507 10520 10534 10545 10558 10568 10578 10586 10594 10604 10610 10616 10622 10626 10630 10632 10635 10637 10638 10638 10636 10634 10632 10631 10628 10624
10401 10404 10407 10410 10416 10419 10422 10425 10431 10437 10441 10445 10452 10461 10469 10480 10489 10501 10512 10525 10536 10546 10556 10565 10575 10584 10592 10598 10604 10609 10615 10619 10621 10623 10625 10626 10627 10625 10625 10624 10622 10620 10616 10612